Regional Weather Roundup
Issued by NWS Newport/Morehead, NC

Current Version | Previous Version | Text Only | Print | Product List | Glossary On
Versions: 1 2 3 4 5 6 7 8 9 10 11 12 13 14 15 16 17 18 19 20 21 22 23 24 25 26 27 28 29 30 31 32 33 34 35 36 37 38 39 40 41 42 43 44 45 46 47 48 49 50
000
ASUS42 KMHX 270212
RWRMHX
WEATHER ROUNDUP FOR EASTERN NORTH CAROLINA
NATIONAL WEATHER SERVICE NEWPORT/MOREHEAD CITY NC
1000 PM EDT SUN APR 26 2015

NOTE: "FAIR" INDICATES FEW OR NO CLOUDS BELOW 12,000 FEET
WITH NO SIGNIFICANT WEATHER AND/OR OBSTRUCTIONS TO VISIBILITY

NCZ015>017-031-032-045>047-102-103-270300-
NORTH COAST

CITY           SKY/WX    TMP DP  RH WIND       PRES   REMARKS
EDENTON        MOCLDY    50  47  90 CALM      29.76R
ELIZABETH CITY MOCLDY    52  43  71 NE9       29.75R
KITTY HAWK     MOCLDY    52  35  51 N7        29.73R
MANTEO         MOCLDY    52  34  49 N9        29.74R

$$

NCZ045>047-081-094-103-104-270300-
CENTRAL COAST

CITY           SKY/WX    TMP DP  RH WIND       PRES   REMARKS
FRISCO         CLOUDY    50  38  63 N8        29.72R
SWANQUARTER      N/A     50 N/A N/A VRB1      29.71S

$$

NCZ095-097-098-100-101-270300-
SOUTHERN COAST

CITY           SKY/WX    TMP DP  RH WIND       PRES   REMARKS
BEAUFORT       CLOUDY    53  48  83 N6        29.74R
CEDAR ISLAND     N/A     55 N/A N/A VRB15G21  29.77S
JACKSONVILLE   CLOUDY    53  46  77 N7        29.76R
PINEY ISLAND   CLOUDY   N/A N/A N/A N12       29.72S
WILMINGTON     CLOUDY    54  47  77 NE8       29.76R


$$

NCZ011>013-027>030-043-044-078>080-089-090>093-098-270300-
COASTAL PLAIN

CITY           SKY/WX    TMP DP  RH WIND       PRES   REMARKS
AHOSKIE        PTCLDY    47  46  97 CALM      29.77R
CLINTON        LGT RAIN  52  50  92 CALM      29.80R
ELIZABETHTOWN  CLOUDY    52  49  87 CALM      29.77R
GOLDSBORO      CLOUDY    51  47  87 CALM      29.74R
GREENVILLE     MOCLDY    50  48  93 CALM      29.79R
HAVELOCK       CLOUDY    53  47  79 N9        29.74S
KENANSVILLE    CLOUDY    51  47  86 N3        29.77R
KINSTON        MOCLDY    50  48  93 NW3       29.76S
NEW BERN       MOCLDY    52  46  80 N9        29.74F
RICHLANDS      MOCLDY    52  45  76 CALM      29.77R
ROCKY MOUNT    MOCLDY    51  47  86 CALM      29.77R
WASHINGTON       N/A     50  47  90 NW3       29.77R
WHITEVILLE     CLOUDY    54  48  82 N5        29.76R

$$

AMZ130-135-150-152-154-156-158-170-250-252-270-ANZ085-086-088-633-658-670-270300-
MARINE OBSERVATIONS

STATION/POSITION TIME  TEMP    WIND        PRES    WAVE   SWELL
                       AIR SEA DIR/SP/G            HT/PER HT/PER
                 (UTC) (F)     (DEG/KT/KT) (MB)    (FT/S) (FT/S)
CHESAPEAKE LIGHT 0200   51      70/  4/  5 1007.8
64 E VA BEACH    0150   56 56   30/ 14/ 16 1005.6    5/ 6   3/ 7
DUCK             0100   53 55   10/ 10/ 12 1005.6
2 E DUCK         0111      53                N/A     4/ 6
10 NE DUCK       NOT AVBL
OREGON INLET     0100   51 55  360/ 12/ 15 1005.8
HATTERAS CG      0100   55 62  360/ 19/ 22 1005.3
DIAMOND BUOY     0150   56 78  360/ 16/ 19 1005.7    7/10   5/10
CAPE LOOKOUT     0200   54      10/  9/ 12 1006.5
BEAUFORT LAB     0100   54 62   10/ 10/ 12 1005.7
27 SE WRIGHTSVLE 0100   55 72   30/ 14/ 16   N/A
5 SE WRIGHTSVLE  0108   56 65   20/ 12/ 17 1006.6
225 S CAPE HAT   0150   70 71  350/ 12/ 16 1004.7    7/ 8   7/ 8
41 SE CHARLESTON 0150   69 71   40/ 21/ 23 1003.8    4/ 5   2/ 8

$$


USA.gov is the U.S. government's official web portal to all federal, state and local government web resources and services.